Voltar ao catálogo

CZ-6A DEB

AtivoPO
NORAD 56680·DEBRIS·🇨🇳 China

Lançado Nov 11, 2022 de Taiyuan Satellite Launch Center

Loading…

Próximas Passagens (próximas 24 horas)

TLE

AtualizadoSource: Space-Track

Época: Sep 14, 2026, 02:47 UTC

1 56680U 22151AHG 26257.11629906  .00005765  00000-0  10364-2 0  9991
2 56680  98.6098 322.6497 0078361  18.3492 342.0509 14.65070797183957

Acompanhe CZ-6A DEB em tempo real com AllMySat

Download on the App Store